Port Heiden, AK

12:08 AM AKDT on May 26, 2017 (GMT -0800)
Port Heiden

Weather History for PAPH - February, 2014

Change the Weather History Date:

Monday, February 3, 2014

  Actual Average Record
Temperature  
Mean Temperature 36 °F -  
Max Temperature 43 °F 28 °F 44 °F (2003)
Min Temperature 30 °F 18 °F -18 °F (1999)
Degree Days  
Heating Degree Days 28    
Moisture  
Dew Point 29 °F    
Average Humidity 72    
Maximum Humidity 81    
Minimum Humidity 44    
Precipitation  
Precipitation 0.00 in - - ()
Sea Level Pressure  
Sea Level Pressure 30.00 in    
Wind  
Wind Speed 12 mph (ENE)    
Max Wind Speed 28 mph    
Max Gust Speed 36 mph    
Visibility 10 miles    
Events      
Averages and records for this station are not official NWS values.
T = Trace of Precipitation, MM = Missing Value Source: NWS Daily Summary

Daily Weather History Graph

Daily Weather History Graph

Search for Another Location

Airport or City:

Trip Planner

Search our weather history database for the weather conditions in past years. The results will help you decide how hot, cold, wet, or windy it might be!

Date:

Astronomy

Feb. 03, 2014 Rise Set
Actual Time 9:28 AM AKST 6:08 PM AKST
Civil Twilight 8:46 AM AKST 6:50 PM AKST
Nautical Twilight 8:00 AM AKST 7:36 PM AKST
Astronomical Twilight 7:16 AM AKST 8:21 PM AKST
Moon 10:35 AM AKST (2/3) No Moon Set
Length of Visible Light 10h 03m
Length of Day
8h 40m
Waxing Crescent, 21% of the Moon is Illuminated
Feb 3
Waxing Crescent
Feb 6
First Quarter
Feb 14
Full
Feb 22
Last Quarter
Feb 28
New

Hourly Weather History & Observations

Time (AKST) Temp. Windchill Dew Point Humidity Pressure Visibility Wind Dir Wind Speed Gust Speed Precip Events Conditions
12:16 AM 30.2 °F 21.3 °F 24.8 °F 80% 30.13 in 10.0 mi NE 10.4 mph - N/A   Mostly Cloudy
12:36 AM 30.2 °F 20.8 °F 24.8 °F 80% 30.12 in 10.0 mi NE 11.5 mph - N/A   Mostly Cloudy
12:56 AM 30.2 °F 20.8 °F 24.8 °F 80% 30.11 in 10.0 mi NE 11.5 mph - N/A   Mostly Cloudy
1:16 AM 30.2 °F 20.8 °F 24.8 °F 80% 30.11 in 10.0 mi NE 11.5 mph - N/A   Mostly Cloudy
1:36 AM 30.2 °F 19.8 °F 24.8 °F 80% 30.10 in 10.0 mi NE 13.8 mph - N/A   Partly Cloudy
1:56 AM 30.2 °F 19.8 °F 24.8 °F 80% 30.10 in 10.0 mi NE 13.8 mph - N/A   Clear
2:16 AM 30.2 °F 19.3 °F 24.8 °F 80% 30.09 in 10.0 mi NE 15.0 mph - N/A   Partly Cloudy
2:36 AM 30.2 °F 19.8 °F 24.8 °F 80% 30.08 in 10.0 mi NE 13.8 mph - N/A   Mostly Cloudy
2:56 AM 30.2 °F 19.8 °F 24.8 °F 80% 30.07 in 10.0 mi NE 13.8 mph - N/A   Mostly Cloudy
3:16 AM 30.2 °F 19.8 °F 23.0 °F 75% 30.06 in 10.0 mi NE 13.8 mph - N/A   Mostly Cloudy
3:36 AM 30.2 °F 20.2 °F 24.8 °F 80% 30.06 in 10.0 mi NE 12.7 mph - N/A   Mostly Cloudy
3:56 AM 30.2 °F 20.2 °F 24.8 °F 80% 30.05 in 10.0 mi NE 12.7 mph - N/A   Overcast
4:16 AM 30.2 °F 19.8 °F 24.8 °F 80% 30.05 in 10.0 mi NE 13.8 mph - N/A   Overcast
4:36 AM 30.2 °F 20.2 °F 24.8 °F 80% 30.04 in 10.0 mi NE 12.7 mph - N/A   Overcast
4:56 AM 30.2 °F 20.2 °F 24.8 °F 80% 30.03 in 10.0 mi NE 12.7 mph - N/A   Mostly Cloudy
5:16 AM 30.2 °F 20.8 °F 24.8 °F 80% 30.03 in 10.0 mi ENE 11.5 mph - N/A   Mostly Cloudy
5:36 AM 33.8 °F 24.8 °F 26.6 °F 75% 30.03 in 10.0 mi NE 12.7 mph - N/A   Mostly Cloudy
5:56 AM 32.0 °F 23.0 °F 26.6 °F 80% 30.02 in 10.0 mi NE 11.5 mph - N/A   Overcast
6:16 AM 30.2 °F 21.9 °F 24.8 °F 80% 30.02 in 10.0 mi NE 9.2 mph - N/A   Overcast
6:36 AM 32.0 °F 24.2 °F 26.6 °F 80% 30.02 in 10.0 mi ENE 9.2 mph - N/A   Overcast
6:56 AM 33.8 °F 24.8 °F 26.6 °F 75% 30.02 in 10.0 mi ENE 12.7 mph - N/A   Overcast
7:16 AM 33.8 °F 25.3 °F 28.4 °F 81% 30.01 in 10.0 mi NE 11.5 mph - N/A   Overcast
7:36 AM 33.8 °F 25.3 °F 26.6 °F 75% 30.00 in 10.0 mi ENE 11.5 mph - N/A   Mostly Cloudy
7:56 AM 33.8 °F 26.4 °F 28.4 °F 81% 30.00 in 10.0 mi ENE 9.2 mph - N/A   Overcast
8:16 AM 33.8 °F 25.3 °F 28.4 °F 81% 30.00 in 10.0 mi NE 11.5 mph - N/A   Overcast
8:36 AM 33.8 °F 27.0 °F 28.4 °F 81% 30.00 in 10.0 mi NE 8.1 mph - N/A   Overcast
8:56 AM 33.8 °F 27.0 °F 28.4 °F 81% 30.00 in 10.0 mi NNE 8.1 mph - N/A   Mostly Cloudy
9:16 AM 33.8 °F 27.7 °F 28.4 °F 81% 30.00 in 10.0 mi NE 6.9 mph - N/A   Mostly Cloudy
9:36 AM 33.8 °F 27.7 °F 28.4 °F 81% 30.00 in 10.0 mi ENE 6.9 mph - N/A   Overcast
9:56 AM 35.6 °F 30.7 °F 28.4 °F 75% 30.01 in 10.0 mi ENE 5.8 mph - N/A   Overcast
10:16 AM 35.6 °F 30.7 °F 28.4 °F 75% 30.01 in 10.0 mi East 5.8 mph - N/A   Overcast
10:36 AM 37.4 °F 31.4 °F 28.4 °F 70% 30.01 in 10.0 mi East 8.1 mph - N/A   Overcast
10:56 AM 37.4 °F 32.1 °F 30.2 °F 75% 30.00 in 10.0 mi East 6.9 mph - N/A   Overcast
11:16 AM 37.4 °F 32.1 °F 30.2 °F 75% 30.00 in 10.0 mi East 6.9 mph - N/A   Overcast
11:36 AM 37.4 °F 30.8 °F 30.2 °F 75% 30.00 in 10.0 mi East 9.2 mph - N/A   Overcast
11:56 AM 39.2 °F 32.5 °F 30.2 °F 70% 30.00 in 10.0 mi ESE 10.4 mph - N/A   Overcast
12:16 PM 39.2 °F 32.5 °F 30.2 °F 70% 29.99 in 10.0 mi East 10.4 mph - N/A   Overcast
12:36 PM 39.2 °F 33.6 °F 30.2 °F 70% 29.99 in 10.0 mi East 8.1 mph - N/A   Overcast
12:56 PM 41.0 °F 35.2 °F 32.0 °F 70% 29.98 in 10.0 mi East 9.2 mph - N/A   Overcast
1:16 PM 41.0 °F 33.9 °F 30.2 °F 65% 29.98 in 10.0 mi ESE 12.7 mph - N/A   Overcast
1:36 PM 41.0 °F 33.9 °F 30.2 °F 65% 29.98 in 10.0 mi East 12.7 mph 17.3 mph N/A   Overcast
1:56 PM 39.2 °F 34.2 °F 32.0 °F 75% 29.98 in 10.0 mi East 6.9 mph - N/A   Overcast
2:16 PM 39.2 °F 33.0 °F 32.0 °F 75% 29.97 in 10.0 mi East 9.2 mph - N/A   Overcast
2:36 PM 39.2 °F 33.0 °F 30.2 °F 70% 29.97 in 10.0 mi ENE 9.2 mph - N/A   Overcast
2:56 PM 39.2 °F 33.0 °F 32.0 °F 75% 29.96 in 10.0 mi East 9.2 mph - N/A   Overcast
3:16 PM 39.2 °F 32.5 °F 30.2 °F 70% 29.96 in 10.0 mi East 10.4 mph - N/A   Overcast
3:36 PM 39.2 °F 33.0 °F 30.2 °F 70% 29.96 in 10.0 mi East 9.2 mph - N/A   Overcast
3:56 PM 39.2 °F 32.5 °F 30.2 °F 70% 29.95 in 10.0 mi East 10.4 mph - N/A   Overcast
4:16 PM 39.2 °F 32.5 °F 32.0 °F 75% 29.95 in 10.0 mi ESE 10.4 mph - N/A   Overcast
4:36 PM 39.2 °F 31.6 °F 30.2 °F 70% 29.94 in 10.0 mi East 12.7 mph - N/A   Overcast
4:56 PM 39.2 °F 33.0 °F 32.0 °F 75% 29.94 in 10.0 mi East 9.2 mph - N/A   Overcast
5:16 PM 41.0 °F 35.8 °F 30.2 °F 65% 29.94 in 10.0 mi ESE 8.1 mph - N/A   Overcast
5:36 PM 39.2 °F 34.2 °F 30.2 °F 70% 29.94 in 10.0 mi ESE 6.9 mph - N/A   Overcast
5:56 PM 41.0 °F 35.8 °F 30.2 °F 65% 29.94 in 10.0 mi SE 8.1 mph - N/A   Overcast
6:16 PM 41.0 °F 35.2 °F 30.2 °F 65% 29.94 in 10.0 mi East 9.2 mph - N/A   Overcast
6:36 PM 41.0 °F 35.2 °F 30.2 °F 65% 29.94 in 10.0 mi ESE 9.2 mph - N/A   Overcast
6:56 PM 42.8 °F 38.6 °F 30.2 °F 61% 29.94 in 10.0 mi East 6.9 mph - N/A   Overcast
7:16 PM 41.0 °F 34.7 °F 30.2 °F 65% 29.94 in 10.0 mi ESE 10.4 mph - N/A   Overcast
7:36 PM 42.8 °F 37.5 °F 30.2 °F 61% 29.94 in 10.0 mi ESE 9.2 mph - N/A   Mostly Cloudy
7:56 PM 41.0 °F 34.3 °F 30.2 °F 65% 29.95 in 10.0 mi East 11.5 mph 21.9 mph N/A   Overcast
8:16 PM 41.0 °F 33.1 °F 30.2 °F 65% 29.95 in 10.0 mi East 15.0 mph - N/A   Overcast
8:36 PM 42.8 °F 34.3 °F 30.2 °F 61% 29.94 in 10.0 mi East 19.6 mph 26.5 mph N/A   Overcast
8:56 PM 42.8 °F 34.3 °F 28.4 °F 57% 29.94 in 10.0 mi East 19.6 mph 34.5 mph N/A   Overcast
9:16 PM 41.0 °F 32.5 °F 30.2 °F 65% 29.96 in 10.0 mi East 17.3 mph 27.6 mph N/A   Mostly Cloudy
9:36 PM 41.0 °F 31.6 °F 30.2 °F 65% 29.95 in 10.0 mi East 20.7 mph 28.8 mph N/A   Overcast
9:56 PM 41.0 °F 30.9 °F 30.2 °F 65% 29.95 in 10.0 mi East 24.2 mph 31.1 mph N/A   Overcast
10:16 PM 39.2 °F 29.3 °F 30.2 °F 70% 29.95 in 10.0 mi East 20.7 mph 27.6 mph N/A   Overcast
10:36 PM 41.0 °F 31.4 °F 30.2 °F 65% 29.95 in 10.0 mi East 21.9 mph 28.8 mph N/A   Overcast
10:56 PM 41.0 °F 31.4 °F 30.2 °F 65% 29.94 in 10.0 mi East 21.9 mph 27.6 mph N/A   Mostly Cloudy
11:16 PM 42.8 °F 32.7 °F 30.2 °F 61% 29.94 in 10.0 mi ESE 27.6 mph 34.5 mph N/A   Mostly Cloudy
11:36 PM 41.0 °F 31.1 °F 30.2 °F 65% 29.95 in 10.0 mi ESE 23.0 mph 28.8 mph N/A   Mostly Cloudy
11:56 PM 42.8 °F 32.7 °F 30.2 °F 61% 29.94 in 10.0 mi ESE 27.6 mph 35.7 mph N/A   Mostly Cloudy